sat.trackr.live / text

‹ back to catalog

SCS-01 C

NORAD 63984 · 2025-100C

PAYLOAD ACTIVE UNKNOWN

§ Identity

Operator
Country
PRC
Launch date
2025-05-14
Launch site
JSC
Launch vehicle
Mass (kg)
RCS (m²)

External: N2YO · Heavens-Above · Gunter

§ Orbital elements

Epoch: 2026-09-21T10:43:28.024896Z

Period
94.65 min
Inclination
97.3586°
Eccentricity
0.0029774
Mean motion
15.21423474 rev/d
Perigee alt
481.1 km
Apogee alt
522.0 km
Semi-major
6,879.7 km
B*
2.1518e-4
RAAN
335.0445°
Arg perigee
28.5982°
Mean anomaly
331.6879°
Rev number
7,525

§ Raw data

SCS-01 C1 63984U 25100C   26264.44685214  .00004818  00000+0  21518-3 0  99922 63984  97.3586 335.0445 0029774  28.5982 331.6879 15.21423474 75256

JSON: /api/v1/satellites/63984 · /tle

For live sub-satellite position, see the globe view (requires WebGL).

§ Visibility from observer

Set your observer location to see the next 7 days of passes ≥ 10°. The values pass through the URL so the page stays shareable.

No JS? Fill the form by hand. The geolocation button needs JavaScript.